CDT,Max TemperatureF,Mean TemperatureF,Min TemperatureF,Max Dew PointF,MeanDew PointF,Min DewpointF,Max Humidity, Mean Humidity, Min Humidity, Max Sea Level PressureIn, Mean Sea Level PressureIn, Min Sea Level PressureIn, Max VisibilityMiles, Mean VisibilityMiles, Min VisibilityMiles, Max Wind SpeedMPH, Mean Wind SpeedMPH, Max Gust SpeedMPH,PrecipitationIn, CloudCover, Events, WindDirDegrees
2012-9-1,75,70,68,66,60,56,87,69,55,30.11,30.07,30.00,10,9,2,20,11,24,0.23,3,Rain,57
2012-9-2,80,74,68,67,65,62,87,76,54,30.01,29.96,29.92,10,10,10,16,11,22,0.00,4,,66
2012-9-3,84,74,64,70,67,64,100,85,58,29.97,29.93,29.88,10,5,0,9,4,,0.00,1,Fog,63
2012-9-4,86,75,64,72,67,57,100,80,59,29.97,29.90,29.84,10,8,0,30,7,44,0.73,4,Fog-Rain-Thunderstorm,108
2012-9-5,87,72,60,68,64,59,96,80,53,29.91,29.81,29.73,10,10,5,16,6,24,0.08,3,Rain,192
2012-9-6,82,71,60,65,61,49,100,82,33,29.94,29.89,29.84,10,5,0,12,2,16,0.01,0,Fog,296
2012-9-7,77,65,55,65,60,54,100,85,58,29.93,29.86,29.78,10,8,1,16,4,23,0.14,3,Rain,324
2012-9-8,71,60,51,53,49,45,97,70,41,29.90,29.86,29.83,10,9,1,17,9,25,0.27,2,Rain,296
2012-9-9,72,61,50,54,50,45,97,76,39,30.16,30.03,29.87,10,9,1,13,8,18,0.01,1,,339
2012-9-10,75,62,48,55,50,46,97,68,40,30.23,30.16,30.09,10,10,9,16,5,20,0.01,0,,201
2012-9-11,82,68,55,56,52,48,77,56,34,30.13,30.08,30.02,10,10,10,17,8,30,0.00,0,,207
2012-9-12,86,75,64,60,55,46,73,53,34,30.14,30.10,30.06,10,10,10,15,9,25,0.00,0,,211
2012-9-13,63,56,48,52,49,43,100,80,46,30.34,30.29,30.16,10,7,2,10,5,,0.14,5,Rain,332
2012-9-14,75,58,44,50,46,39,100,77,28,30.35,30.32,30.27,10,6,0,12,5,21,0.01,0,Fog,295
2012-9-15,77,60,44,58,48,44,100,78,35,30.32,30.25,30.13,10,7,2,12,3,17,0.01,0,,206
2012-9-16,77,64,51,52,46,43,83,57,31,30.13,30.05,29.97,10,10,10,13,6,18,0.00,0,,225
2012-9-17,79,66,53,61,54,47,88,73,46,29.96,29.83,29.73,10,10,6,15,7,36,0.03,4,Rain-Thunderstorm,260
2012-9-18,62,50,39,50,38,30,90,66,31,30.04,29.91,29.82,10,10,10,18,9,24,0.01,3,Rain,319
2012-9-19,73,54,34,46,38,32,93,55,28,30.07,29.93,29.77,10,10,10,26,9,39,0.00,2,Thunderstorm,204
2012-9-20,71,58,45,47,38,30,83,53,25,29.93,29.87,29.82,10,10,10,25,9,31,0.00,0,,269
2012-9-21,61,52,45,49,44,36,93,78,48,29.94,29.87,29.80,10,9,3,14,6,,0.41,6,Rain,241
2012-9-22,59,50,42,48,42,36,94,78,51,30.17,29.94,29.79,10,10,7,25,12,33,0.01,4,Rain,278
2012-9-23,59,46,36,36,32,28,86,62,32,30.27,30.23,30.18,10,10,10,14,6,22,0.00,1,,287
2012-9-24,70,52,33,37,33,30,89,50,25,30.23,30.05,29.87,10,10,8,22,9,31,0.00,0,,231
2012-9-25,80,65,51,55,47,37,90,59,32,29.88,29.84,29.79,10,10,10,13,9,20,0.00,0,,231
2012-9-26,66,56,46,53,46,39,94,74,48,30.20,30.04,29.90,10,10,4,15,7,18,0.01,2,,15
2012-9-27,63,51,41,48,44,37,86,69,59,30.23,30.21,30.17,10,10,10,16,7,22,0.00,6,,7
2012-9-28,66,56,44,48,45,42,96,70,45,30.21,30.17,30.13,10,10,5,12,7,21,0.00,1,,13
2012-9-29,77,60,44,50,43,37,96,70,25,30.12,30.06,29.99,10,8,2,13,5,,0.00,0,,300
2012-9-30,64,53,42,52,45,37,96,74,38,30.03,30.00,29.97,10,8,1,14,6,21,0.01,1,,18